This is the latest recevied weather packets stored in our database for station/object FW0727. If no packets are shown the sender has not sent any weather packets the latest 10 day(s).
| Time | Temp. | Humidity | Pressure | Rain* | Wind** | Luminosity | Snow |
|---|---|---|---|---|---|---|---|
| 1787645254 | 25° C | 35% | 1017.2 hPa | - | - | - | - |
| 1787644902 | 25° C | 34% | 1017.1 hPa | - | - | - | - |
| 1787644549 | 25° C | 34% | 1017.2 hPa | - | - | - | - |
| 1787644197 | 25.56° C | 34% | 1017.2 hPa | - | - | - | - |
| 1787643844 | 25° C | 34% | 1017.2 hPa | - | - | - | - |
| 1787643492 | 25° C | 34% | 1017.1 hPa | - | - | - | - |
| 1787643140 | 25° C | 34% | 1017.1 hPa | - | - | - | - |
| 1787642787 | 25° C | 35% | 1017 hPa | - | - | - | - |
| 1787642105 | 24.44° C | 34% | 1017.2 hPa | - | - | - | - |
| 1787641752 | 24.44° C | 34% | 1017.2 hPa | - | - | - | - |
| 1787641400 | 23.89° C | 34% | 1017 hPa | - | - | - | - |
| 1787641047 | 24.44° C | 34% | 1017 hPa | - | - | - | - |
| 1787640694 | 23.89° C | 34% | 1016.8 hPa | - | - | - | - |
| 1787640340 | 23.89° C | 36% | 1016.8 hPa | - | - | - | - |
| 1787639989 | 23.89° C | 36% | 1016.8 hPa | - | - | - | - |
| 1787639637 | 23.33° C | 37% | 1016.8 hPa | - | - | - | - |
| 1787639285 | 23.33° C | 37% | 1016.9 hPa | - | - | - | - |
| 1787638604 | 22.78° C | 38% | 1016.8 hPa | - | - | - | - |
| 1787637923 | 22.78° C | 38% | 1016.9 hPa | - | - | - | - |
| 1787637569 | 22.78° C | 38% | 1016.9 hPa | - | - | - | - |
| 1787637224 | 22.22° C | 39% | 1016.9 hPa | - | - | - | - |
| 1787636545 | 22.22° C | 39% | 1016.8 hPa | - | - | - | - |
| 1787635865 | 21.67° C | 40% | 1016.8 hPa | - | - | - | - |
| 1787635512 | 21.67° C | 40% | 1016.8 hPa | - | - | - | - |
| 1787635160 | 21.67° C | 41% | 1016.7 hPa | - | - | - | - |
* Rain since midnight (hover to see other rain measurements)
** Current wind speed in m/s (hover to see current wind gust speed)